STARLINK-33564 (62286 NORAD) Tracking and Keplerian Element Data

This shows tracking and keplerian element data for the satellite.

Feedback or suggestion? Click here.




ElementValue
Catalog62286
NameSTARLINK-33564
Epoch Orbit1016
Epoch Day34.9390054
Epoch Year2025
RAAN312.1519
Inclination43.0017
Eccentricity0.0001638
Argument of Perigee269.4435
Mean Anonmoly90.6233
Mean Motion15.40682446
Decay Rate1.461E-05
L11 62286U 24237V 25034.93900540 .00001461 00000+0 42247-4 0 9990
L22 62286 43.0017 312.1519 0001638 269.4435 90.6233 15.40682446 10165



Live tracking and technical data element details for STARLINK-33564 (NORAD 62286). STARLINK-33564 can be tracked NOW for your location showing map with azimuth and elevation plus other details from your city location.







IsCatalogInMostPopularTable: catalog: 62286, numindb: 14
Update: records affected: 1



GetName: 62286 STARLINK-33564

Hit Count: updated at: Sun, 18 May 2025 22:05:00 GMT